cliquez pour ajouter le site Runraid à vos favoris  English version (google)  Retour à l'accueil Ecrire à l'auteur du site Runraid : Michel Jourdan



Les prochaines courses


Les derniers résultats

cliquez pour visualiser la page complète relatant la chronologie des éruptions du Piton de la Fournaise
éruptions Piton de la Fournaise


Ile de La Réunion

 Diagonale des Fous 

Nouveautés du site

Ecrire au créateur du site : Michel Jourdan
Contact


2017-07-29 - 6000D 2017

Pour consulter le palmarès d'un coureur, un clic sur son nom !

Vous avez des remarques, corrections, ... sur ces résultats , un clic sur --> pour me transmettre toute information concernant les classements


6000D 2017 - 2017 : classement des 1159 finishers
Place Nom Temps Cat. Club Sexe Clt/cat.
Place Nom Temps Cat. Club Sexe Clt/cat.
1 GRANGIER GERMAIN 06:11:03 M 1388
2 ZEROUAD JAOUAD 06:15:49 TEAM NEW BALANC M 1327
3 STUCK YOANN 06:19:37 SAONE MONT D'OR M 1310
4 AIRIAU GAUTIER 06:30:48 MERIBEL SPORT M M 7
5 CELARIER CeDRIC 06:35:35 M 1361
6 LEGROS JARNO 06:36:58 LANGRES TRIATHL M 11
7 SAPY JULIEN 06:39:25 ATHLETISME METZ M 1051
8 SAINT GIRONS THOMAS 06:43:47 ALES CEVENNES A M 6
9 PERRIN SYLVAIN 06:46:27 DOMONT ATHLETIS M 926
10 KIEFFEL JeReMY 06:46:48 ASRH VALLEE DES M 673
11 JUNG FReDeRIC 06:51:43 OCT ATHLE 55 M 1237
12 NOEL JOHANNICK 06:57:49 S/L CA DE LA HA M 884
13 DARCEAUX ALEXIS 06:57:50 DIJON SINGLETRA M 359
14 MARQUIS LAURENT 06:59:48 UAHV M 803
15 MORISSE YOANN 07:00:10 M 863
16 GARNIER FRANCIS 07:01:55 USM VIRE M 535
17 GHIRARD FLORENT 07:03:48 M 555
18 MORIN FRED 07:06:57 CAPOSS M 861
19 BENARD VALENTIN 07:07:40 M 125
20 DOBY RENAUD 07:09:27 M 1383
21 VIARD LOiC 07:17:06 CAHM M 1164
22 PERRIN PATRICK 07:18:57 M 1285
23 MAROUD MARC 07:19:05 VEO2000 LA PLAG M 1262
24 SENECHAL NICOLAS 07:20:13 VAL DE SAONE AT M 1068
25 SIMMONS WILL 07:20:23 ILKLEY HARRIERS M 33
26 BRINCARD HUGO 07:21:19 RACING LETI M 231
27 TAVAN PIERRICK 07:24:28 S/L AL ECHIROLL M 1103
28 CHEVALLIER LUDOVIC 07:26:15 M 300
29 SENECHAL JULIEN 07:29:28 CO EU BRESLE M 1069
30 JARRIER FABIEN 07:30:27 M 25
31 BONNEFOND ROLAND 07:32:00 VEO2000 LA PLAG M 38
32 KUSCHNICK PHILIPPE 07:32:47 TOUQUET TRAIL N M 680
33 JOURNAUX FRANcOIS 07:33:33 TOWN TO TRAIL M 1236
34 DROUIN DONATIEN 07:33:53 ACVA SECTION TR M 432
35 DETHOREY ARNAUD 07:35:13 BARBES RUNNERS M 413
36 PAULY JOCELYNE 07:35:50 LES GIVRES DE L F 1ere F 2172
37 VIVIEN GEOFFREY 07:36:20 LMPTTA M 1177
38 ALLANTAZ GUILLAUME 07:36:54 TRAILEUR DU PAR M 1330
39 DESPERT FRANCK 07:37:28 M 408
40 RIVALLANT YANN 07:41:04 M 1300
41 RUSSIER FABIEN 07:41:45 DIJON UC M 1411
42 AEBERLI FABIEN 07:44:37 TEAM PROVENCE E M 55
43 CHARNAY SeBASTIEN 07:44:57 01 PUSLION PONT M 287
44 RIBEIRO LIONEL 07:44:59 01 PULSION PONT M 1004
45 CAILLET SAMUEL 07:45:54 AS AIX LES BAIN M 1359
46 LE RAY YANN 07:45:57 CARQ M 1245
47 TRUFFAULT CLeMENT 07:48:55 6 BATAILLON DE M 1137
48 AZAZI MEHDI 07:49:05 ASSOCIATION AUT M 86
49 MAUBERT LIONEL 07:49:10 STADE RODEZ ATH M 823
50 DETRE MICHEL 07:50:28 ACVA SECTION TR M 414
51 RAVAINE YANN 07:51:47 M 992
52 SENECHAL JeReMY 07:51:55 CO EU BRESLE M 1070
53 BILLET MARTIAL 07:52:08 YACA COURIR AMP M 151
54 GAMBA ANTHONY 07:52:08 M 527
55 HUE THOMAS 07:54:17 TEAM COMPEX TRA M 629
56 LEROI LAURENT 07:54:27 AFA FEYZIN M 1248
57 MAJEWSKI DAVID 07:56:17 TAILLEFER TRAIL M 1259
58 DELATTRE JULIEN 07:56:34 ASEC M 385
59 BENOIT JeRoME 07:56:45 DAC REIMS M 128
60 GRY NICOLAS 07:57:55 ASSA SARREGUEMI M 591
61 LINDQVIST MORGAN 08:01:01 M 767
62 LHOMME ALAIN 08:01:27 M 756
63 POURE JEAN FRANcOIS 08:01:34 USM MALAKOFF M 965
64 CORNU LANGY ANTONIN 08:03:49 M 331
65 MONICAT EMMANUEL 08:04:16 M 2129
66 BOULLEMANT AMIEL 08:04:39 ALES CEVENNES A M 1351
67 CLAVEL THIERRY 08:04:59 CS BOURGOIN JAL M 313
68 MARTHEY QUENTIN 08:05:21 M 805
69 SEGARD AUGUSTIN 08:05:33 M 1066
70 BOULVAIS DOMINIQUE 08:06:02 COURIR A DOL M 200
71 GUICHARD DAMIEN 08:07:20 CLUB ALPIN BOUR M 1223
72 PAPAZIAN RAPHAeL 08:07:21 TRAIL ATHLITUDE M 899
73 MARTIN CHRISTOPHE 08:07:24 DAC REIMS M 806
74 NOGUE LAURENCE 08:09:41 BOULIAC SPORTS F 2eme F 2136
75 VALADE CeDRIC 08:10:24 M 1144
76 DURAND FREDERIC 08:10:39 AS CAVAILLON M 463
77 ROMERO FABIEN 08:10:53 M 1029
78 PUNTOUS ERIC 08:10:58 XIBEROTARRAK M 977
79 LAFONT THIERRY 08:11:58 AC MIRAMAS M 686
80 DURECHOU JULIEN 08:12:03 RSSC ATHLETISME M 464
81 COURREGES FReDeRIC 08:12:49 BOULIAC SPORTS M 336
82 BOUIX JULIEN 08:13:04 SARDINES TRIATH M 196
83 MARTINS BAIRROS THOMAS 08:13:20 M 812
84 BONA STEVENS 08:13:44 M 173
85 ARNAL LUCIE 08:14:23 TEAM PROVENCE E F 3eme F 2029
86 THOMAS CHRISTOPHE 08:14:24 TRAKKS TEAM BEL M 1316
87 DORILLE JeRoME 08:14:54 TEAM COMPEX TRA M 428
88 ZAMMIT FReDeRIC 08:15:13 PIRANHAS M 1186
89 OUGIER SIMONIN LAURENT 08:15:19 M 1404
90 BONNE SeBASTIEN 08:15:42 FFCAM CAF BUECH M 174
91 VIGIER JeRoME 08:15:59 RT TAMALOU M 1320
92 VAGNANI CHRISTOPHE 08:16:18 ASSOCIATION AUT M 1141
93 OUSTELANDT ARMAND 08:16:19 M 894
94 VITRY FLORENT 08:16:54 M 1175
95 LECLERC JeReMY 08:17:38 CA BALMA M 721
96 AGIUS DAMIEN 08:18:16 TEAM TRAIL EXPL M 1329
97 MARCHAND ReGIS 08:18:44 ISSY TRIATHLON M 796
98 BASQUIN FLORENTIN 08:19:38 TRAIL CLUB DE P M 104
99 BONY MATHIEU 08:24:42 M 182
100 PIQUARD DAVID 08:25:43 M 943
101 GOUX MICKAEL 08:26:20 M 574
102 JULIEN ROMAIN 08:26:59 M 663
103 RODRIGUES MANUEL 08:27:13 M 1301
104 FONT XAVIER 08:27:30 TAILLEFER TRAIL M 505
105 FONDACCI LAURENT 08:28:07 M 504
106 BRACONNOT CHRISTOPHE 08:28:29 IBM PARIS M 215
107 RIGOULET STePHANE 08:28:29 EPA 86 M 1299
108 MORDA MATHIEU 08:28:40 M 857
109 VIGNER RONALD 08:29:11 ASSOCIATION DES M 1167
110 LANDMANN CELINE 08:29:35 F 4 F 2011
111 MERRELL RICHARD 08:30:33 M 835
112 TARIS HERVe 08:30:39 BOULIAC SPORTS M 1102
113 REVAULT ALEXIS 08:30:39 M 1000
114 ROUSSELET ARNAUD 08:31:00 M 1034
115 GRINDLER DAVID 08:31:14 M 586
116 BOIDOT CHRISTOPHE 08:32:00 LACSHM M 169
117 RABATEL LANDRY 08:33:04 M 981
118 BREMAUD MATHIEU 08:34:21 MMAC M 223
119 BONNIER LAURENT 08:34:40 M 179
120 ISABELLE TEDDY 08:35:01 M 637
121 ISABELLE ANTHONY 08:35:01 M 1232
122 MICHELET AUReLIEN 08:35:22 M 1270
123 HENDERSON CHRISTIAN 08:37:05 ALLEN VALLEY ST M 621
124 MITTNACHT GUILLAUME 08:37:16 M 848
125 BIHAN FReDeRIC 08:37:23 CHAMBERY TRIATH M 1348
126 CORVASIER ADRIEN 08:37:41 VS LA FERTE BER M 1382
127 ARNOUX GILDAS 08:38:20 CE CHEVRON M 74
128 MARCHEIX ERIC 08:38:36 BOULIAC SPORTS M 797
129 HONORE GAeTAN 08:39:10 M 626
130 AUBERT MICKAEL 08:39:14 M 1336
131 FUMAT MICHEL 08:40:08 M 1211
132 MARSURA PHILIPPE 08:40:47 RCV M 1263
133 RIBERPREY GERMAIN 08:41:20 HEM ATHLETIC CL M 1006
134 HEYD ADRIEN 08:41:34 M 624
135 JACQUOT THOMAS 08:42:29 M 644
136 CHAPELLIERE YANN 08:42:47 M 283
137 METZGER LAURENT 08:42:57 M 1268
138 GIRAUD MICKAeL 08:43:18 M 1217
139 MILLET CAROLE 08:43:32 CCA ROUFFACH F 5 F 2127
140 PLAVONIL SONY 08:43:46 AS MARCOUSSIS M 950
141 LAMA SHERPA PASANG 08:43:53 M 1391
142 BUSNEL LUBIN 08:43:58 ISSY TRIATHLON M 239
143 ROYER NICOLAS 08:44:58 M 1302
144 CHRISTOL JEAN EMMANUEL 08:45:37 DOMBES RUNNING M 307
145 CHAMPOUILLON BENOIT 08:45:39 M 280
146 DUROCHER THOMAS 08:45:42 LES ALLIGATORS M 1199
147 PENNANT ERIC 08:46:14 VELAY ATHLETISM M 919
148 GOUX OLIVIER 08:46:49 M 575
149 MAUPLIN MIKAeL 08:47:22 RC VICHY M 824
150 NELIN FABIEN 08:47:58 POMPIER AIX LES M 1278
151 MOREAU ReMY 08:48:03 M 858
152 LECLERE BENOIT 08:48:10 M 1394
153 LOBJOIS LAURENT 08:49:02 OCCP LA CIOTAT M 1252
154 PRIOUX YANN 08:49:04 M 969
155 DA SILVA JOAQUIM 08:50:00 MACADAM 06 M 352
156 FINAS Celine 08:50:10 TOUS AZIMUT DOUAI F 6 F 2074
157 DUMAND CHRISTOPHER 08:50:15 TEAM COMPEX TRA M 453
158 BEAUHAIRE JULIEN 08:50:31 M 114
159 CATOIRE BASTIEN 08:51:03 ACVA SECTION TR M 265
160 PERRY JULIEN 08:51:38 COUTACH EVASION M 929
161 DECHAVANNE STePHANE 08:52:00 A.C.A.P.PRESSIN M 374
162 BATIFOULIER LIONEL 08:52:28 PLAUZAT SPORT N M 106
163 BESOMBES THIERRY 08:52:29 PLAUZAT SPORT N M 142
164 PARON FRANCESCHINI CHRI... 08:52:43 SARDINES TRIATH M 901
165 PREVOT LOIC 08:53:07 M 966
166 PATRIGEON THIERRY 08:53:27 CAPRG M 1283
167 LASNIER CHRISTOPHE 08:53:52 RAIDS EUROSPORT M 702
168 ARCE PATRICK 08:54:05 COURIR A BEAUCA M 71
169 COSTE GeRALD 08:54:49 M 1369
170 MOMBAERTS JOHAN 08:54:58 AS MINORANGE DE M 853
171 GERMAIN JeROME 08:55:23 M 1215
172 GAUTIER ROMAIN 08:55:39 M 544
173 GOYET THIERRY 08:57:02 M 1219
174 COLET IVAN 08:57:24 M 324
175 BAUD CHRISTOPHE 08:57:30 TEAM COMPEX M 107
176 MAILLARD ANTHONY 08:58:08 M 783
177 PELLICIER LUDOVIC 08:58:20 M 917
178 BELMERE JEAN BAPTISTE 08:58:21 M 121
179 AUFRERE CHRISTOPHE 08:58:31 LA BERRICHONNE M 82
180 GODINES MARCOS 08:59:08 AUXERRE ENDURAN M 1218
181 CHANSAC GILLES 08:59:27 CO KM42 M 281
182 PLANCHE MICKAEL 09:00:12 M 1407
183 DULAC VINCENT 09:01:03 U.A.MAURIENNE S M 452
184 LE GUENNEC MATTHIEU 09:01:39 M 715
185 VELUT ALEXANDRE 09:01:49 TROYES TRIATHLO M 1415
186 POULIQUEN DOMINIQUE 09:02:27 ROSPORDEN OXYGE M 964
187 MILLET MICKAEL 09:03:00 TAILLEFER TRAIL M 844
188 GRABIASZ MIGUEL 09:04:25 A.S.M BLAIREAUX M 1387
189 SIOR ADRIEN 09:04:57 AS RANDONNEURS M 1084
190 CASTELLANI JEAN SIMON 09:05:27 M 263
191 DUMORA GAeTAN 09:05:35 M 457
192 PAULMIER CLeMENT 09:06:34 M 907
193 SAINT GERMAIN JOHAN 09:06:49 M 1048
194 VALETTE LILIAN 09:08:06 MACDAM 07 M 1318
195 MESNARD KARINE 09:08:16 LA BERRICHONNE F 7 F 2125
196 TABAREAU NICOLAS 09:08:58 TEAM ENDURANCE M 1311
197 TOULET DAN 09:09:50 ULTRA MARIN M 1127
198 PORCHERON VINCENT 09:10:02 STILBAG M 958
199 LAPIQUE PATRICK 09:10:31 M 1242
200 LE GRIX FRANcOIS 09:11:07 MAUGUIO TRIATHL M 714
201 SERPOLLET BENJAMIN 09:11:08 M 1073
202 MINGOZZI ADRIEN 09:11:18 S/L EA VILLEFRA M 846
203 CAVAGNOUD CHRISTOPHE 09:11:34 M 267
204 SAUX JEAN PHILIPPE 09:11:41 MARSEILLE TRAIL M 1055
205 DELCLOY OLIVIER 09:11:44 TRIATHLON CLUB M 388
206 READING STEVEN 09:11:48 FIT FOR LIFE M 994
207 BARDONE NOe 09:12:04 M 102
208 FOUVET LAURENT 09:13:33 CORBAS RUNNING M 512
209 VOGT MAXIME 09:14:15 HTMS M 1323
210 PITOU AXEL 09:14:46 FC BARBENTANE M 1286
211 AUDEBERT JEAN PHILIPPE 09:14:56 BSGA M 80
212 RABETTE QUENTIN 09:15:15 ACVA SECTION TR M 982
213 VEYRES DOMINIQUE 09:15:26 TEAM MOUFLARDS M 1162
214 MINAUX ERIC 09:15:30 M 845
215 SMITH JACK 09:15:54 M 1086
216 VANDENHELSKEN LOiC 09:16:03 DSN 74 M 1152
217 SPARFEL AMeLIE 09:16:06 BOULIAC SPORTS F 8 F 2174
218 POCHON GUILLAUME 09:16:54 . M 952
219 COUTO OLIVIER 09:17:23 TEAM ST YORRE M 339
220 BOSVEIL ERIC 09:17:25 M 186
221 ALLAIRAT NICOLAS 09:17:53 TEAM TERRE DE R M 60
222 LEFEBVRE NATHAN 09:18:50 ACVA SECTION TR M 726
223 DEFAUX PIERRE 09:19:20 ASPTT VERDUN A M 1193
224 DURET VINCENT 09:20:36 ASSOCIATION SPO M 465
225 BOURIQUET ROMAIN 09:20:37 M 204
226 FERRY CHRISTOPHE 09:20:40 TEAM TUCHE M 497
227 DOSSOT JEAN MARC 09:21:06 ERRANCE REIMS M 430
228 FORGET XAVIER 09:21:09 M 1208
229 MATHIEU STePHANE 09:21:22 M 820
230 VAN DE GEHUGTE STePHANE 09:21:25 M 1319
231 JAKOPIC STEVE 09:22:04 MBDA SPORT ATHL M 646
232 RABUSSIER DAVID 09:22:19 ENA M 983
233 PERRIER MARTIN 09:23:08 THE FRENCH SPAR M 923
234 PAPILLON FABRICE 09:23:25 M 1282
235 CUOQ FLORIAN 09:23:32 CAF GRENOBLE IS M 349
236 DELETOMBE BAPTISTE 09:23:32 CLUB ALPIN FRAN M 389
237 CHATAIN GUILLAUME 09:23:46 M 294
238 CARABIN PATRICK 09:23:55 M 253
239 JACQUIN DENIS 09:24:45 TEAM INTERSPORT M 643
240 GRIGY BAPTISTE 09:24:59 ANTONY TRIATHLO M 1221
241 MARQUIS MICHA 09:26:19 BOULIAC SPORTS M 802
242 LORENZ DIDIER 09:26:21 GRAINE DE CHAMP M 775
243 DELACOTE BRANDON 09:27:13 M 380
244 FALQUY JEAN LOUIS 09:27:29 M 486
245 GIRAUDON ReMI 09:27:35 AS CALUIRE M 562
246 LHOPITAL CLeMENT 09:27:35 AS CALUIRE ATHL M 757
247 JACQUIER PIERRE 09:27:47 RUNNING CLUB MA M 642
248 CABIROL JeReMY 09:28:46 M 1358
249 VIDIGAL NICOLAS 09:28:51 M 1166
250 MICEK FRANTISEK 09:29:10 AC PRAHA 1889 M 1269
251 ROLLIER STePHANE 09:29:13 M 1025
252 BOSSER DOMINIQUE 09:29:23 M 1377
253 PREHU FLORIAN 09:29:37 M 1291
254 BAVOUX ERIC 09:29:44 M 110
255 BLONDELLE KeVIN 09:29:56 M 164
256 FRANCOIS BENJAMIN 09:30:06 M 1210
257 BRUNO PHILIPPE 09:30:26 M 1357
258 CARRANQUE PASCAL 09:30:35 M 261
259 SERILLON JACQUES 09:30:57 S/L CCA ROUFFAC M 1072
260 PARLOUAR TANGUI 09:31:38 M 900
261 CELESTIN DEVENDRA BENEDict 09:31:42 CS TERNES PARIS M 269
262 LAGRAVIERE ARNAUD 09:31:54 M 689
263 SIA JONATHAN 09:32:01 CAP02 M 1077
264 LE FLOCH FReDeRIC 09:32:06 QUEVEN ATHLETIS M 1392
265 BENADDI FLORENT 09:32:07 M 1341
266 CELENTIN HUGUES 09:32:44 BELVYLE TEAM M 268
267 JEROME GILLES 09:32:45 BELVYLE TEAM M 654
268 THOREAU JeRoME 09:32:51 M 1114
269 FURET LUCAS 09:33:02 MUIIIII PORCIN M 523
270 NICOLAS RICHARD 09:33:14 EMSL M 879
271 POLLIEN CHRISTIAN 09:33:19 M 955
272 ROCHETTE FReDeRICK 09:33:26 XRUN CLUB M 1021
273 CLEMENT GUILLAUME 09:33:35 M 317
274 CLOPON STePHANE 09:33:55 M 319
275 BACHER MURIELLE 09:34:11 F 9 F 2021
276 DESSANS DOMINIQUE 09:34:29 BOULIAC SPORTS M 412
277 GARNIER ARNAUD 09:34:33 M 534
278 LIEBLANG GUILLAUME 09:34:35 M 762
279 FABRY JeRoME 09:34:46 COUREURS DES RE M 483
280 RIGOUX PASCAL 09:35:02 US TALENCE M 1015
281 CELI THOMAS 09:36:14 M 1362
282 VAN REEPINGHEN GReGOIRE 09:36:34 M 1149
283 GARREAU CHARLES 09:36:37 NESTOR NESTOR.C M 539
284 NEE STePHANE 09:37:52 M 1403
285 CRUBILIE JOeL 09:38:12 FAC FIGEAC M 347
286 ROLLING DAVID 09:38:19 RAIDLIGHT M 1026
287 DAUBIN YANNIS 09:38:24 N/A M 364
288 PUTRICH PHILIPPE 09:38:37 ESCHEN'S TEAM M 978
289 DESIGAUD FABIEN 09:38:46 M 407
290 CUCHEROUSSET FRANCK 09:39:09 LOUE LISON M 1372
291 DUCRET LAURENT 09:39:25 M 449
292 TORCATIS MATHIEU 09:39:29 KILIANROJOS M 1125
293 SERVEAUX FREDDY 09:40:09 M 1074
294 JURAND LOPEZ NATACHA 09:40:26 F 10 F 2098
295 ALIEU ALAIN 09:40:27 S/LRUNNING66 M 26
296 POPIER CHRISTIAN 09:40:30 M 957
297 CANTELOU ROMAIN 09:41:08 TRIATHLON PAYS M 252
298 GUERARD CeDRIC 09:41:26 M 594
299 BERARD GUILLAUME 09:41:39 M 1343
300 VERCUEIL LAURENT 09:41:51 ULTRAFONDUS M 1158
301 FOLLOT MAXENCE 09:42:03 M 1206
302 ALLIO LUDOVIC 09:42:27 M 1331
303 ANTIGA FABRICE 09:42:37 UCCV M 68
304 HERITEAU XAVIER 09:42:41 PORTET ATHLETIC M 1229
305 HEURTEL FRANcOIS 09:42:53 BOULIAC SPORTS M 623
306 HUBAUX FANNY 09:43:18 F 11 F 2095
307 REYTER JeRoME 09:43:26 M 1409
308 BIDAL BRICE 09:43:29 TEAM COMPEX TRA M 149
309 GATEFIN KeVIN 09:43:29 M 1214
310 HAAS VINCENT 09:43:29 M 609
311 PANNETIER THIERRY 09:44:02 ASSOCIATION SPO M 898
312 BEY LOiC 09:44:29 M 146
313 BERCAND MANUEL 09:44:31 LUXEUIL ATHLE 7 M 1344
314 ZEEH JEAN CHRISTOPHE 09:44:48 M 1189
315 CHAILLOU LUDOVIC 09:45:20 M 278
316 BOUVIER JEAN SeBASTIEN 09:45:53 CAEN TRIATHLON M 207
317 BOUVIER ALICE 09:45:53 CAEN ATHLETIC C F 12 F 2048
318 DAUBERT GUILLAUME 09:46:08 LES TRAILERS DU M 1192
319 BATTAIL SYLVAIN 09:46:12 BELLES GRIMPES M 1338
320 BUARD THIERRY 09:46:16 MEGA M 237
321 LONGIN JeRoME 09:46:26 M 771
322 CHASSIN LAURENT 09:46:29 M 292
323 CLEMENT KeVIN 09:46:31 M 316
324 MASIA LAURENT 09:46:37 ACRA ARLES ET S M 815
325 PIPARD JOHANN 09:46:47 ENTENTE NORD LO M 942
326 LONG PATRICE 09:46:56 FAUCIGNY ATHLET M 770
327 TYRANOWICZ DAMIEN 09:47:00 AS AGNETZ ATHLE M 1140
328 LETOMBE BENOIT 09:47:02 AS AGNETZ M 1250
329 VELLUT AUReLIEN 09:47:03 ASSOCIATION SPO M 1156
330 MOREL QUENTIN 09:47:32 M 859
331 CALVET ANTHONY 09:48:14 SALOMON/PAGANEL M 248
332 BOYER ROMAIN 09:48:16 M 210
333 MEACHEN RAPHAELE 09:48:19 S/L ATHLE VOSGE F 13 F 2169
334 SCHIEFELBEIN YANNICK 09:48:22 M 1059
335 MASINA ROMAIN 09:48:26 M 816
336 GRAIZON MARTIN 09:49:12 LA BAGARRE M 1220
337 LAHILLE THOMAS 09:49:13 TEAM BOLOSS M 1241
338 MANGIN FReDeRIC 09:49:25 AO CHARENTON M 793
339 RIFFARD BENOIT 09:49:35 M 1013
340 LACROIX ALEXIS 09:49:43 WGTN THE CREW M 683
341 HANTRAYE FRANCK 09:49:57 M 612
342 OLAGNIER EYMERIC 09:50:22 M 889
343 MONNIER EDOUARD 09:50:25 ASPTT TRAIL M 854
344 MAJCHRZAK NICOLAS 09:50:53 M 790
345 GAC CeDRIC 09:51:14 AVOC M 525
346 QUAISSARD GAETAN 09:51:19 WGTN THE CREW M 979
347 LOPEZ CeDRIC 09:51:23 M 774
348 DODON FABIEN 09:51:28 TRGV M 426
349 BRISSART JeRoME 09:51:47 CDBA M 232
350 GASNOT ANTHONY 09:51:48 M 1213
351 DIHA CAMEL 09:52:10 TEAM MY SPORT M 421
352 LEROY BENJAMIN 09:52:20 M 744
353 GRANADO JEAN BAPTISTE 09:52:25 HENIN ENDURANCE M 576
354 BERGER CYRIL 09:52:40 AIX SAVOIE TRIA M 1374
355 DELATTRE JEAN PAUL 09:52:41 M 386
356 DUNAND GILBERT 09:52:45 M 1198
357 MEDINA CeDRIC 09:52:54 MEDICRYO / GET M 828
358 ROIZOT SeBASTIEN 09:53:17 MONTELIMAR TRIA M 1410
359 FOULON BERTRAND 09:53:30 TEAM TRAIL DU P M 508
360 FERNANDES GUILLAUME 09:53:33 M 1385
361 CHORGNON LUDOVIC 09:53:47 MARATHON DU PER M 1363
362 MOIROUD XAVIER 09:54:12 M 849
363 CARIOU LeNY 09:54:20 LIB'AIR'TRAIL M 256
364 FICHOT AURORE 09:54:20 F 14 F 2073
365 GUICHON STePHANE 09:54:35 CENTRAL TEAM EN M 1224
366 PINCAS MICHAeL 09:54:43 M 940
367 BABONAUX PHILIPPE 09:54:55 SAINT MAXIMIN A M 88
368 KINNEN SYLVAIN 09:55:46 M 675
369 SOURISSEAU YANN 09:56:00 M 1089
370 BALQUET DENIS 09:56:22 M 97
371 WAJNTRAUB OLIVIER 09:56:22 M 1182
372 BONHOMME RICHARD 09:56:48 M 1350
373 QUEMENER PATRICE 09:57:02 TENNIS CLUB ANZ M 980
374 RULLIAT JOHAN 09:57:13 M 1043
375 TOMASSI LAURENT 09:57:37 M 1124
376 HUDEBINE ALEXIS 09:58:04 M 628
377 GROUSSON PATRICK 09:58:06 COURIR EN DOMBE M 589
378 GOUIN EMMANUEL 09:58:21 EACPA M 569
379 DASSY RAMON 09:58:35 ENTENTE SPORTIV M 362
380 LETTLER BENJAMIN 09:58:57 M 751
381 ESKENAZI ANTHONY 09:59:00 ASMA M 1201
382 HUOT MARCHAND JeRoME 09:59:01 M 632
383 FAVRE OLIVIER 09:59:15 M 491
384 AMET FRANCOIS XAVIER 09:59:19 S/L ATHLE VOSGE M 62
385 SCHUSTER NICOLAS 09:59:30 TRAIL'IN BASTOG M 1061
386 PERRIN ReMI 09:59:31 TRAIL'IN BASTOG M 927
387 RICHARD FRANCK 09:59:35 M 1009
388 BALLIGAND LYDIE 10:00:01 F 15 F 2033
389 BELLAHCENE SAID 10:00:04 ASPTT DIGNE M 119
390 MAIBOOM ALAIN 10:00:06 M 781
391 TETU FRANcOIS 10:00:30 CHISTOLE RUNNIN M 1109
392 ROUSSEL PATRICK 10:00:52 LA BERRICHONNE M 1033
393 COUDERT ReGIS 10:00:52 SAONE MONT D'OR M 1371
394 NOEL OLIVIER 10:01:05 AC CHATEAU THIE M 885
395 LAURENT BENJAMIN 10:01:05 CHIERRY J'Y COU M 705
396 COVINDIN PHILIPPE 10:01:17 BLAGNAC SC M 341
397 PERRUCHET SeBASTIEN 10:01:37 ILE DE LOISIRS M 928
398 JUQUELIER FReDeRIC 10:02:04 M 667
399 MORPOURGO SeBASTIEN 10:02:15 M 865
400 DAIREAUX FRANcOIS 10:02:37 M 353
401 TANCHOUX BERNARD 10:02:42 RUNNERS DES VIG M 1100
402 RIGUET THIERRY 10:03:32 TEAM TRAIL EXPL M 1016
403 CARRET LYDIE 10:04:10 EACPA F 16 F 2052
404 SACUTO YANN 10:04:11 M 1047
405 LUCAK CeLINE 10:04:15 JC EPERNAY CHAM F 17 F 2114
406 DUBOIS ANTHONY 10:04:30 CE ALSTOM M 438
407 MALDEME QUENTIN 10:04:47 M 791
408 GESCHWIND ALAIN 10:05:09 FOULEES NABORIE M 553
409 BLANCHARD BERTRAND 10:05:22 CLUB ATHLETIQUE M 160
410 ARNAUD CYRIL 10:05:26 TOWN TO TRAIL M 1334
411 RAGUENES STePHANE 10:05:56 M 986
412 GABRIEL GeRARD 10:06:03 UNNORMALTRAIL M 1212
413 COUTADEUR OLIVIER 10:06:25 AS LORILLARD M 338
414 MATHIEU PIERRE 10:06:54 M 819
415 MICOUD TOMA 10:06:57 HERMITAGE TOURN M 1400
416 SABATIER DAVID 10:07:02 ANNECY LE VIEUX M 1045
417 LENGELLE NICOLAS 10:07:13 M 1395
418 LEGRAND MARC 10:07:22 M 731
419 THORET SIMON 10:07:30 M 1116
420 BRACHET THOMAS 10:07:34 M 212
421 LERY ETIENNE 10:08:18 M 745
422 MORAT MURIELLE 10:08:25 ATHLE 55 F 18 F 2133
423 LE BIHAN CAROLINE 10:08:54 TAILLEFER TRAIL F 19 F 2106
424 MORISSE ERIC 10:08:56 S/L A.SPORTIVE M 864
425 LEROY VICTOR 10:09:02 MAUVES ATTITUDE M 743
426 TATNGA VALENTIN 10:09:13 CLUB 26 ALLAN M 1314
427 POCCARD JEROME 10:09:53 M 951
428 DEISS ETIENNE 10:10:00 M 378
429 JACQUES KARYNA 10:10:15 UST COURIR A SA F 20 F 2097
430 GROB TIPHANIE 10:10:37 F 21 F 2088
431 BERRANGER CLAUDE 10:10:39 AUBIGNY STUART M 1375
432 CARPENTIER ROMAIN 10:10:53 ESSONNE ATHLETI M 259
433 LABED LUC 10:11:01 CO KM42 M 682
434 ESPINOSA FLORIAN 10:11:09 M 477
435 SITBON OLIVIER 10:11:23 M 1085
436 MATHIEU EMMANUEL 10:11:31 M 821
437 MILESI JeRoME 10:11:38 ATHLETISME SIX M 843
438 BLANCHET NICOLAS 10:11:48 TKT PAS C ROULA M 1349
439 DUCHENE MAeL 10:11:48 M 445
440 CHARENTUS THIERRY 10:11:58 M 285
441 BONNEVIALLE CHRISTOPHE 10:11:58 M 178
442 DESPLACES FLORIAN 10:11:58 M 409
443 GAUTHIER OLIVIER 10:11:58 M 541
444 VINSON BERNARD 10:12:00 VEO2000 LA PLAG M 1322
445 BORJON CeDRIC 10:12:01 TSB M 184
446 BOUDOUAIA BEKKAYE 10:12:32 ASSOCIATION AUT M 193
447 POUJADE FRANCK 10:12:44 M 961
448 BLANC TRANCHANT PIERRE 10:12:48 M 2043
449 SIGAUD LAURENT 10:12:50 M 1081
450 CHAPUS OLIVIER 10:12:54 M 1379
451 PIRAS BRUNO 10:13:03 ASPTT CHALONS E M 1406
452 GILBART YOANN 10:13:08 AC HUNINGUE M 558
453 FOLLOT ANSELME 10:13:25 DIJON UC M 1205
454 LEPINE ALEXANDRE 10:13:45 M 741
455 TOUSCH CHRISTINE 10:13:59 F 22 F 2149
456 BICK FReDeRIC 10:13:59 M 148
457 DE LANTIVY MARTIN 10:14:07 M 367
458 DUSSURGEY FRANCK 10:14:07 M 469
459 BARTNICKI MIREILLE 10:14:35 VEO2000 LA PLAG F 23 F 2162
460 RIVAIL LUCIE 10:14:59 F 24 F 2142
461 JACQUOT DAMIEN 10:14:59 M 645
462 GUYOT YANNICK 10:14:59 M 608
463 VOLET PIERRE ALAIN 10:15:03 M 1180
464 BONNET PASCAL 10:15:11 M 176
465 DORRER VIVIEN 10:15:14 FAUCIGNY ATHLET M 429
466 FERLAY DAVID 10:15:16 M 493
467 JAOUEN YANN 10:15:28 M 649
468 FRANCART VINCENT 10:15:39 M 514
469 FATAH FARID 10:15:46 M 1204
470 SALOY ReMI 10:16:05 M 1049
471 JOSSERAND MARC 10:16:08 M 657
472 BORDEL SANDRA 10:16:22 COURIR EN LIVRA F 25 F 2163
473 CONRAD SeBASTIEN 10:16:31 M 328
474 POIREE SeBASTIEN 10:16:32 TEAM COMPEX TRA M 953
475 BIRMAN ELSA 10:16:33 EFSRA F 26 F 2042
476 CANNESSON ALEXIS 10:17:01 M 1360
477 LACAZE FRANK 10:17:02 M 1240
478 GEUSE JULIEN 10:17:24 NCFYC M 1216
479 GOUSSET PHILIPPE 10:17:26 M 573
480 LIVET LAURENT 10:17:50 MACADAM 07 M 768
481 TISSERAND JeRoME 10:17:50 M 1123
482 MEDRALA JAKUB 10:18:12 M 829
483 REGNIER BENOIT 10:18:34 RUN'IN ANGENIEU M 996
484 AUBERT FReDeRIC 10:18:45 M 77
485 LUX DAVID 10:18:47 M 779
486 DEPRET CLeMENT 10:18:48 M 402
487 ADAM AUReLIEN 10:19:06 M 52
488 BERTOIS EMERIC 10:19:24 CCPB M 141
489 CLARK KEVIN 10:19:42 MJC MONPLAISIR M 310
490 CADIER PATRICE 10:20:01 TRIATHLE86 M 245
491 RICHARD JONATHAN 10:20:03 M 1007
492 RAMILLON NICOLAS 10:20:55 M 988
493 FROSIO DAVID 10:21:13 TEAM COMPEX TRA M 521
494 DILMI JEAN PHILIPPE 10:21:30 LES FONDUS M 422
495 LESZCZYNSKI YANECK 10:21:34 M 750
496 WITKOWSKI YOANN 10:21:37 M 1416
497 COURDIER JEAN MARC 10:21:40 BASKETS FUMANTE M 335
498 RASE RODOLPHE 10:21:41 HOKAKA TEAM M 991
499 JULLIEN STEPHEN 10:21:45 M 666
500 MARTIN JEAN CHRISTOPHE 10:22:01 M 1399
501 SCIASCIA BENOIT 10:22:39 COURIR A POISY M 1063
502 KREBS DIDIER 10:22:52 M 678
503 RUAUD SeBASTIEN 10:23:13 CO KM42 M 1040
504 BOUL ANTOINE 10:23:30 M 197
505 MARCHAL ANTHONY 10:23:41 M 1260
506 ROBIDOU STePHANE 10:23:42 COURIR A DOL M 1018
507 LEBOURG GUILLAUME 10:23:50 M 720
508 BONNEFILLE ROUALET ANTO... 10:23:51 TREK TV M 175
509 GROS PHILIPPE 10:24:03 AS TOURNUS M 587
510 BOUCHET OLIVIER 10:24:32 BASKETS FUMANTE M 190
511 DELAUNAY FReDeRIC 10:24:39 ANNONAY JOGGING M 1195
512 LECOMTE KEVIN 10:24:49 M 1246
513 WACHENHEIM PASCAL 10:25:02 SUPRA OBERNAI M 1325
514 COLUSSI MATHIEU 10:25:05 M 1381
515 DORTU DERCOUR LUCILLE 10:25:19 ASPTT COMPIEGNE F 27 F 2067
516 MONTET OCeANE 10:25:21 DIMITILE SPORTS F 28 F 2131
517 TOUSCH CHRISTOPHE 10:25:43 ACS M 1317
518 DRAGO GIUSEPPE 10:25:43 ACS CRE STIRING M 431
519 GIVORD PATRICE 10:26:12 LES COPAINS D A M 564
520 LAMANDE STEVE 10:26:35 CLUB TCHIMBE RA M 692
521 MATTEI DIDIER 10:26:49 A NOUS LA VICTO M 822
522 MERLIN YANIS 10:27:05 URIAGE RUNNING M 1266
523 DAMELINCOURT NICOLAS 10:27:07 M 355
524 MIGNON LUC 10:27:49 TEAM TRAIL SALO M 1272
525 PANICHI ANNE 10:28:11 F 29 F 2171
526 NOE FLORIAN 10:28:13 M 1279
527 DEBLANGY GEOFFREY 10:28:44 US CAMON M 372
528 CARON MICKAEL 10:28:45 AMICAL DU VAL D M 258
529 GUEZE FReDeRIC 10:29:01 FAUCIGNY ATHLET M 597
530 NEVEU GWeNAeL 10:29:01 M 874
531 BIZET YVES 10:29:10 M 155
532 RYCKEWAERT ARNAUD 10:30:06 RCA TRIATHLON M 1044
533 MARCK PIERRE YVES 10:30:39 TEAM COMPEX TRA M 798
534 CHOUQUET ALEX 10:30:54 CLUB EMSL M 306
535 BRAIDA CeDRIC 10:31:02 M 216
536 COCHET LUDOVIC 10:31:03 FOISSIAT BRESSE M 1365
537 PONTALLIER MICKAEL 10:31:40 TEAM CHARENTES M 1288
538 CLOZEL CYRIL 10:31:45 ARDECHOISCOEURF M 321
539 CHATAGNON ReMY 10:32:00 M 293
540 OUVRIER BUFFET GEOFFRAY 10:32:24 M 895
541 JOB STePHANE 10:32:59 LA TRANCHEE DE M 1233
542 KERGUILLEC PASCAL 10:33:07 INTERSPORT MORL M 671
543 MEUDEC JEAN JACQUES 10:33:08 FOULEES DU KERN M 839
544 BREUVART MARTIN 10:33:25 M 229
545 CHAUVET FReDeRIC 10:33:30 ATHLETIC CLUB A M 296
546 DE TEMMERMAN GReGORY 10:33:39 AIX ATHLE PROVE M 370
547 CUTILLAS NICOLAS 10:34:13 BASKETS FUMANTE M 350
548 HIDREAU TEDDY 10:34:23 M 625
549 BERDAGUE GAeLLE 10:34:28 F 30 F 2041
550 PRITCHARD SAM 10:34:43 M 970
551 PIRIOU NICOLAS 10:34:48 LA JOIE DE COUR M 944
552 COZIEN FRANCK 10:34:51 LA JOIE DE COUR M 342
553 LANCELIN PHILIPPE 10:34:55 RTC BRIONNE CGH M 695
554 CORDONNIER PHILIPPE 10:35:15 OLYMPIQUE ATHLE M 1368
555 MARCINISZYN AGNIESZKA 10:35:32 EACPA F 31 F 2119
556 DEVACHT ANTOINE 10:35:34 EACPA M 415
557 ARBEZ PHILIPPE 10:35:40 M 70
558 DERCOURT ERIC 10:36:11 M 403
559 RENZO AXEL 10:36:15 M 998
560 DAUPHIN LAURENT 10:36:31 M 365
561 THIVILLIER NICOLAS 10:36:39 M 1412
562 LEBLACHER ERIC 10:36:40 UA VILLENOY M 1393
563 DEVEAUX BENOiT 10:36:41 TT 25/6 M 416
564 CHARLES NICOLAS 10:36:45 TEAM RANDO RUNN M 286
565 BACONNET RODOLPHE 10:36:58 M 90
566 PELLEGRINO PHILIPPE 10:37:06 ACRA ARLES M 916
567 PICQUE MATHIEU 10:37:47 M 939
568 BAS FRANCK 10:38:00 ACRA ARLES M 103
569 LEFEBVRE BENJAMIN 10:38:07 M 727
570 DELACHAPELLE MOREL ERIC 10:38:34 AS AGNETZ ATHLE M 379
571 PROTAIS DAVID 10:38:49 TRAIL ATTITUDE M 971
572 CLERCY VINCENT 10:39:00 ATHLE SAINT MES M 1380
573 PFISTER VALENTIN 10:39:34 M 934
574 DELANGLE STANISLAS 10:39:34 M 384
575 BESSOU NICOLAS 10:40:35 M 145
576 AUGER AURORE 10:40:36 TECHNI SPORTS 7 F 32 F 2032
577 MATEU ANTOINE 10:40:59 COURIR A MORIER M 818
578 HUBERT VINCENT 10:41:18 LIB AIR TRAIL M 627
579 DUCRUEZ PASCAL 10:41:22 M 450
580 CHALLAND SAMUEL 10:41:29 M 279
581 AMMENDOLA ANTONIO 10:41:31 NCFYC M 1333
582 BABE WALTER 10:41:51 M 87
583 BORDIER JeRoME 10:42:05 CSTERNES M 183
584 PICARD JULIEN 10:42:16 LES BRONZAMIS M 938
585 LOUIS ALAIN 10:42:22 AS AGNETZ ATHLE M 777
586 FERRANTE OLIVIER 10:42:22 AS AGNETZ ATHLE M 495
587 BOURDON LOIC 10:42:32 DOHA BAY RUNNIN M 202
588 PIAT PHILIPPE 10:42:34 LA BALGENTIENNE M 937
589 SELVA PHILIPPE 10:42:35 CAP DINSHEIM M 1067
590 CARPENTIER DIDIER 10:42:38 LA FOULLEE ST J M 260
591 MARION VINCENT 10:42:38 LA FOULLEE ST J M 801
592 MELENDO LOIC 10:42:38 TEAM SPORT INTE M 831
593 BELLON FReDeRIC 10:43:51 HAVANA TEAM M 1340
594 MAILLET ARNAUD 10:44:07 M 784
595 PAULIN FRANcOIS 10:44:37 ASVA VILLENEUVE M 906
596 RUBILONI GILLES 10:44:54 CNPONTARLIER TR M 1041
597 PIVETEAU BRICE 10:45:26 PAYS DE LA LOIR M 945
598 BORNE AUReLIEN 10:45:29 M 185
599 BOUVIER BRUNO 10:45:31 ESTUAIRE ATHLET M 208
600 GOUSSE CHRISTIAN 10:45:35 MEYRIE M 572
601 MELCHERS FLORENT 10:45:35 M 830
602 IURETIG NICOLAS 10:45:37 K RAID ARDENNES M 638
603 HALBWAX JORDAN 10:46:12 M 610
604 PUISAIS CeDRIC 10:46:23 M 976
605 MICHELET ReMI 10:46:27 M 841
606 VIOT PIERRE 10:46:45 M 1174
607 SCHMIDT MATHIEU 10:46:55 M 1060
608 TARANTOLA FABIEN 10:47:05 EVIAN OFF COURS M 1312
609 BELLANGER CeCILE 10:47:13 US METRO TRANSP F 33 F 2039
610 DEMARS ANTOINE 10:47:13 LA TEAM RAGONDI M 396
611 AUBRY DAVID 10:47:23 ATHLE 55 M 78
612 POGORZELSKI THIBAUT 10:47:41 M 1287
613 TAMNGA CHRISTINE 10:47:52 ASPHALTE 94 F 34 F 2175
614 FABRE FReDeRIC 10:48:08 CO KM42 M 482
615 CHIRI ANNE CAROLINE 10:48:08 CO KM42 F 35 F 2058
616 BERNARD FReDeRIC 10:48:08 CO KM42 M 135
617 JACQUIER ROMAIN 10:48:13 TETE D'OR RUNNE M 641
618 DESCLAUX JOHAN 10:48:20 M 406
619 LE CARRE OLIVIER 10:48:20 M 710
620 TEMPE CLAUDE 10:48:32 M 1106
621 JOUFFROY ROMAIN 10:48:34 M 658
622 CHIOMENTO FABIEN 10:48:50 M 302
623 MARTINON GUILLAUME 10:48:52 M 811
624 DEMON GREGORY 10:48:56 M 397
625 DEYLAUD BRUNO 10:49:10 LA FOULEE MEYNO M 417
626 LEROY PHILIPPE 10:49:10 LA FOULEE MEYNO M 1249
627 BOGANEN HANS 10:49:11 M 168
628 KRUG SVEN 10:49:15 M 679
629 ANTIDE JULIEN 10:49:29 M 66
630 ANTIDE SIMON 10:49:29 M 67
631 DALL AGNOL ALAIN 10:49:55 M 354
632 EDALEINE SYLVAIN 10:49:57 M 471
633 GRANGIE ELODIE 10:50:03 F 36 F 2085
634 ARSAC SeBASTIEN 10:50:03 CSA BA114 M 75
635 MAITRE ALEXANDRE 10:50:04 TEAM BUTHIERS M 789
636 MICHELI OLIVIER 10:50:05 BGSA M 1271
637 FORICHON MATTHIEU 10:50:07 M 507
638 DURAND PIERRE 10:50:13 FAUCIGNY ATHLET M 459
639 DENIAU CeDRIC 10:50:13 FAC M 399
640 EROFEEV ALEKSANDR 10:50:16 M 475
641 VIZCAINO JeReMY 10:50:17 M 1178
642 VALTIER LUDOVIC 10:50:30 TRAIL ATTITUDE M 1148
643 FRAIPONT JEAN MARC 10:50:31 M 2076
644 CRIQUILLON NICOLAS 10:50:45 TRAIL ATTITUDE M 345
645 MARTIN ERIC 10:51:00 M 807
646 DEHAIS BAPTISTE 10:51:01 TRAIL ATTITUDE M 1194
647 CAMARD STePHANE 10:51:01 TREGUEUX ATHLET M 249
648 BUTON FLORIAN 10:51:13 M 240
649 SAUVEE NICOLAS 10:51:37 TRAIL IRAGO RUN M 1054
650 LONGIN FRANCK 10:51:44 M 1253
651 LE PORS CLAIRE 10:51:45 F 37 F 2108
652 LESPECT MICHEL 10:51:45 CLUB 26 ALLAN M 747
653 LE GALL ARNAUD 10:51:46 M 712
654 TARDIF AUDREY 10:51:53 F 38 F 2147
655 GAUTIER PIERRE 10:52:13 M 545
656 MAIRY YANIS 10:52:16 TAILLEFER TRAIL M 787
657 NISHIDA NORIFUMI 10:52:24 M 883
658 MARSAT FReDeRIC 10:52:31 M 1397
659 ZANARDI CHRISTOPHE 10:52:46 M 1187
660 CHARTIER KASTLER CYRILL... 10:53:06 LICENCE HORS ST M 289
661 MAUBANT YOHANN 10:53:39 M 1265
662 MOLLER MIKAEL 10:53:41 KAMPINGE TRAIL M 852
663 SCAZZARI VICTOR 10:54:33 M 1306
664 MASSIN JEAN CLAUDE 10:54:49 SAONE MONT D'OR M 817
665 RATSIMIHAH BENJAMIN 10:55:02 SC 91 93 M 1295
666 PRIEM BAPTISTE 10:55:06 CSCV HIRSON M 967
667 LE FLOCH ANDRe 10:55:23 REDERIEN SAINT M 711
668 FAURE BENOIT 10:55:24 M 489
669 FOURNIE FRANcOIS 10:55:24 M 510
670 THIBAUD ERWANN 10:55:41 GRUISSAN SPORT M 1110
671 KOMPIER WIM 10:55:48 OSS VOLO M 1238
672 GIROD NICOLAS 10:56:01 M 563
673 TRIBODET BENOiT 10:56:34 M 1133
674 GRILLON JULIEN 10:56:34 M 585
675 BESSON VINCENT 10:56:45 CAP 92 M 143
676 LEHEC ReGIS 10:56:54 CSM ROSNY SUR S M 733
677 OLLAGNON LANDRY 10:56:56 M 890
678 OLRY EDOUARD 10:56:59 M 891
679 DUSSOUCHAUD CHRISTIAN 10:57:08 M 468
680 DE ROUSSANE THIBAUT 10:57:13 M 368
681 JEANNENEZ DAMIEN 10:57:14 TEAM COMPEX TRA M 652
682 IMPEDOVO DAVID 10:57:14 MORCENX ATHLETI M 636
683 CANON LAURENT 10:57:38 TEAM DE MOI MEM M 251
684 BASTARDIE OLIVIER 10:57:43 VGA SAINT MAUR M 105
685 BREULS HeLeNE 10:57:43 TEAM COMPEX TRA F 39 F 2051
686 DUPONT STePHANE 10:57:57 M 458
687 PASCOE STEPHEN 10:58:00 M 903
688 CHAILLOT DAMIEN 10:58:09 TERRE DE RUNNER M 277
689 ADOBATI ANNE MARIE 10:58:13 MARSEILLE TRAIL F 40 F 2160
690 MACHEREY NICOLAS 10:58:13 SPEEDY CLUB DE M 1257
691 BISCH SIMON 10:58:14 SALEVE TRAIL M 153
692 TRAON STEEVE 10:58:14 M 1131
693 BENAY JEAN CHRISTOPHE 10:58:14 TRIATHLON PLESS M 1342
694 CATAK ABDULLAH 10:58:27 A/L ATHLETISME M 264
695 REICH YVES 10:58:33 M 1298
696 CLOPPET JEAN PAUL 10:58:44 TEAM TEZIG M 320
697 JULLIARD FABIEN 10:58:58 M 665
698 POTTIER ARNAUD 10:59:16 M 959
699 BAUD GILBERT 10:59:20 M 108
700 LAGNIER PIERRE 10:59:23 GUERVILLE TRAIL M 688
701 RUBIO JOSe 10:59:33 M 1303
702 BERANGER BENOIT 10:59:53 UA SOCIETE GENE M 130
703 MOISSONNIER MICKAEL 10:59:54 M 850
704 APPELL JeReMY 11:00:13 UNIVERSALIST M 69
705 CRETIN SAMUEL 11:01:11 M 343
706 DURAND NICOLAS 11:01:32 LONS ATHLE 39 M 462
707 DUBARRY JeRoME 11:01:48 IAAC M 434
708 GUICHART LAURENT 11:01:49 M 599
709 ORTUZAR AUXKIN 11:01:58 M 893
710 TRIN BORIS 11:02:13 XTTR62 M 1134
711 DEPETRIS ESTELLE 11:02:34 TEAM COMPEX TRA F 41 F 2066
712 PASCAL GReGORY 11:02:35 M 2137
713 SILVESTRE GeRALD 11:02:43 M 1308
714 THIEC PHILIPPE 11:02:46 ROSPORDEN OXIGE M 1113
715 JUBAULT THOMAS 11:02:56 M 661
716 BRUNEAU GUILLAUME 11:03:13 MARATHON DU PER M 1356
717 TARDIF SIMON 11:03:14 MARATHON DU PER M 1313
718 DUMONT PASCAL 11:03:21 M 456
719 ESCOBAR JEAN PHILIPPE 11:03:26 BASKETS FUMANTE M 476
720 BAI NICOLAS 11:03:37 M 93
721 MORICE JEAN MARIE 11:03:39 M 860
722 RODUIT CHRISTIAN 11:03:43 M 1022
723 DAROS FReDeRIC 11:03:58 M 361
724 GIRARD ALEXIS 11:04:04 M 559
725 VALLIET GReGORY 11:04:33 CAF CHAMBERY M 1147
726 MAUTRAY JEAN FRANcOIS 11:04:38 TREGUEUX ATHLET M 825
727 BODART FABIEN 11:04:39 LITTORAL AVENTU M 166
728 PLANAS PIERRE JEAN 11:04:55 M 947
729 LAPEYRE ALEXANDRE 11:04:55 LES KINGS OF TH M 699
730 CHEVALIER ARNAUD 11:05:06 VETERANS APREMO M 299
731 MONTRESOR NATHALIE 11:05:10 F 42 F 2132
732 VEDRINE MICHAeL 11:05:17 BEAUJOLAIS RUNN M 1155
733 GRASSET MARC 11:05:28 INTERPARKING M 580
734 LEMOINE YANNICK 11:05:29 M 739
735 BARNAS AXELLE 11:05:33 ENTENTE POITIER F 43 F 2036
736 FREYTHER FABRICE 11:05:49 ASC BNP PARIBAS M 519
737 GEROULT FRANcOIS CYRILL... 11:06:04 M 551
738 FLOQUET PATRICK 11:06:11 ESH HAGONDANGE M 501
739 PECOURT YVES ALEXANDRE 11:06:13 M 913
740 BOURGEOIS DAVID 11:06:20 M 1353
741 COUCHOUX THIBAUT 11:06:24 M 1370
742 MARIN ANTOINE 11:06:44 AS RUY M 800
743 SIOR LAETITIA 11:06:44 F 44 F 2146
744 LASSARA JEAN MARC 11:06:52 SANS BORNES SAI M 703
745 REVERDY CHARLENE 11:06:52 SANS BORNES F 45 F 2173
746 LASSARA JESSICA 11:06:53 LES RAISINS DU F 46 F 2104
747 DIETRICH YANN 11:08:54 M 420
748 RICOZZI MALLORY 11:09:00 TEAM OZO C CHO M 1012
749 GUIRAO CHRISTOPHE 11:09:07 M 605
750 BALSA JOLIVET GHYSLAINE 11:09:16 F 47 F 2034
751 AVICE BRUNO 11:09:21 OUEST ESSONNE A M 84
752 BURNET PIERRE 11:09:22 M 238
753 PETIT ALAIN 11:09:28 AS BOURSE DE PA M 931
754 PRIN FABIEN 11:09:41 M 968
755 VINCENT ANDReA 11:09:53 F 48 F 2155
756 GUINOT PHILIPPE 11:10:07 M 1390
757 BELOUIN DIDIER 11:10:09 LIB'AIR'TRAIL M 122
758 COSYNS SAMUEL 11:10:22 LES TRAILEURS D M 333
759 WILLETTE JEANNE 11:10:46 ALTITRAIL F 49 F 2177
760 DURAND SeBASTIEN 11:10:48 RCN VERTOU M 461
761 SALEH OLIVIER 11:11:31 M 1304
762 HUON RUDY 11:11:34 M 631
763 TIDDA XAVIER 11:12:00 OCCP LA CIOTAT M 1118
764 AISSAOUI AHMED 11:12:13 M 56
765 DELGORGUE GILLES 11:12:34 GALEACE TEAM M 391
766 LATUS BENOIT 11:12:41 ELAN SPORTIF TR M 704
767 JAUBERT THeO 11:12:42 SPIRIDON PERIGO M 650
768 FRATTALI ROBERT 11:13:07 SPORT DEPOT EPA M 517
769 FRATTALI AXELLE 11:13:07 F 50 F 2077
770 LAPORTE DAVID 11:13:50 M 700
771 DISARBOIS HERVe 11:13:52 UA VERSAILLES M 424
772 GIRAUD TOMMY 11:13:53 M 560
773 REYBOIS ARNAUD 11:14:22 JC EPERNAY CHAM M 1001
774 METZKE NICOLAS 11:14:59 M 838
775 DUFEUILLE JOSe 11:15:34 EAC MERU M 451
776 GRENDEL MARIE 11:15:35 EAPE F 51 F 2086
777 BEAUVAIS LESLIE 11:15:35 F 52 F 2038
778 BREBANT PATRICK 11:15:47 M 222
779 FAVIER STePHANIE 11:15:54 UA MAURIENNE F 53 F 2072
780 DENIS BERNARD 11:15:57 M 400
781 SCORDIA ReMI 11:15:58 M 1065
782 JOLY NICOLAS 11:16:03 M 1234
783 DESAI ENGUERRAND 11:17:01 M 1197
784 BLANC TAILLEUR JeReMIE 11:17:02 ESPRIT SAUVIGNO M 159
785 BERNARD JOFFREY 11:17:20 M 133
786 THOMAS JEAN MARC 11:17:21 M 1315
787 ADELHANOFF NICOLAS 11:17:38 M 1328
788 PAIN YANNICK 11:17:59 M 896
789 BOYER OLIVIER 11:18:01 M 211
790 BRAUN OLIVIER 11:18:30 CMBM M 218
791 MOUNIER FRANCK 11:18:58 M 1402
792 MAISONNET JULIEN 11:19:10 M 788
793 IGOUNET ADRIEN 11:19:17 TEAM COMPEX TRA M 635
794 MANSOURI HEMIR 11:19:21 TEAM / EVA M 794
795 BIZET CHRISTOPHE 11:19:24 M 156
796 CATTO LUDO 11:19:26 RANDONNEUR RUY M 266
797 BEGUIN DIMITRI 11:19:40 BELGIUM UNITED M 117
798 LANCIAL LAURENT 11:19:41 JOG'IN TAVEL M 696
799 MARTINEZ PASCAL 11:20:12 SIX FOURS CLUB M 810
800 LE BERRE JEAN FRANcOIS 11:20:14 M 709
801 HONNET SYLVIE 11:20:18 EA ST QUENTIN E F 54 F 2093
802 DEBIZE YOANN 11:20:21 DOMBES RUNNING M 371
803 SCHORR YVES 11:20:23 M 1307
804 LOUIS ELeONORE 11:21:23 F 55 F 2168
805 VEYRET STePHANE 11:21:41 M 1163
806 DANIEL SeBASTIEN 11:22:00 TEAM RAIDLIGHT M 1191
807 CHOLET DAMIEN 11:22:26 GUERVILLE TRAIL M 303
808 BERAUD EDDY 11:22:30 M 131
809 BERAUD EMMANUELLE 11:22:31 F 56 F 2040
810 LALLOZ GAeL 11:23:17 AC CLOYES M 691
811 GRIPON STePHANE 11:24:03 M 1389
812 BIGOTTO THOUVENIN THOMA... 11:24:03 M 1347
813 BOUCHARD STePHANE 11:24:13 M 188
814 PAYSANT NICOLAS 11:24:18 OXYGENE BELBEUF M 912
815 BARAY PIERRE 11:24:18 POUR ALEX WARGO M 98
816 CHOMETTE ERIC 11:24:47 M 304
817 TAVARES MARIO 11:24:53 S/L NOISIEL LOG M 1104
818 ESPOSITO VINCENT 11:24:57 FOISSIAT BRESSE M 478
819 BOURGAU FReDeRIC 11:25:06 M 203
820 BERTHILLOT FRANCK 11:25:35 KIKOUROU LYON U M 138
821 CHESNEL FRANCK 11:25:41 ISIGNY RUNNING M 298
822 PERET JEAN MARC 11:25:59 COURIR EN LIVRA M 921
823 DURAND MATHIEU 11:26:09 SL/AL ECHIROLLE M 460
824 RAGON OLIVIER 11:26:11 M 985
825 ARNOLD GUILLAUME 11:26:19 M 1335
826 CHAVAROCHE OLIVIER 11:26:22 M 297
827 MARCHAND LAURENT 11:26:41 RUNNING CLUB MA M 795
828 DUBOST RAPHAeL 11:26:42 RUNNING CLUB DE M 440
829 CHARVOLIN THIERRY 11:26:42 RUNNING CLUB MA M 290
830 CLEMENT PHILIPPE 11:26:42 RUNNING CLUB MA M 314
831 BERTHIER JEAN CHARLES 11:26:42 AMICALE LAIQUE M 137
832 DA ROCHA NICOLAS 11:26:47 COURBEVOIE TRIA M 351
833 MANACH ERWAN 11:26:47 AS ETOILE MONJO M 792
834 GUICHARDON DENIS 11:27:12 FOISSIAT BRESSE M 598
835 CHAPRON BRUNO 11:27:35 TREGUEUX ATHLET M 284
836 BLANC THIERRY 11:27:39 FOISSIAT BRESSE M 158
837 RIFFAUD THIERRY 11:27:50 M 1014
838 MARCENNE ANNE 11:28:11 ENTENTE POITIER F 57 F 2116
839 BAIGUE CHRISTIAN 11:28:11 ENTENTE POITIER M 94
840 BEL JEAN FRANcOIS 11:28:28 M 1339
841 CHAUVET ETIENNE 11:28:51 PAYS DE NEMOURS M 295
842 FOURNET LAURENT 11:28:51 M 1209
843 JACOB STEVEN 11:29:05 CLUB DES SPORTS M 639
844 IGNATIO MICHAeL 11:29:08 TRI LANEUVEVILL M 1231
845 NADEAU ALEXANDRE 11:29:34 PASS RUNNING M 1276
846 GRIGNON PIERRE 11:30:06 M 584
847 CHABOT JEAN FRANcOIS 11:30:09 M 272
848 RENON PIERRE 11:30:20 CA BALMA M 997
849 DUBOST SeBASTIEN 11:31:01 TARARE TRIATHLO M 441
850 TAMISIER ALEXIS 11:31:13 LIB'AIR'TRAIL M 1099
851 DELANDE SeBASTIEN 11:31:25 ALPES MANCELLES M 383
852 BENIERE LUDOVIC 11:31:49 BSGA M 127
853 ROUXEL CYRIL 11:31:57 INTERPARKING M 1036
854 MIDELET PIERRICK 11:32:10 LMA 72 M 842
855 LEAUTE BENJAMIN 11:32:32 NEW FEEL M 718
856 LIMONE DAVID 11:33:08 M 765
857 JUGEUR STePHANE 11:33:13 M 662
858 BREN ERIC 11:33:30 NAVEIL M 226
859 LANDIER YANNICK 11:33:34 TEAM CA M 697
860 ROUGER NICOLAS 11:33:40 M 1032
861 LEON AYMERIC 11:33:51 M 740
862 MARTEL EMERIC 11:34:34 M 804
863 THOREL ERIC 11:34:53 ATHLE SANTE LOI M 1115
864 CHAIGNON GUILLAUME 11:34:54 M 276
865 DUSOLLIER FABRICE 11:34:54 M 467
866 HAUTEVILLE LONGET JOHNN... 11:34:55 TAEKWENDO DE RA M 617
867 BAHIER EMMANUEL 11:35:14 TREGUEUX ATHLET M 92
868 GAUTIER PIERRE 11:35:34 M 543
869 LESAGE THIERRY 11:35:39 ISIGNY RUNNING M 746
870 DIQUELOU PIERRE 11:35:57 TRAIL RUNNER FO M 423
871 ADANI CHRISTOPHE 11:36:01 DIM RUNNER TEAM M 54
872 TURCANO DAVID 11:36:06 MESSIER SPORTS M 1139
873 FOURNERON VIRGINIA 11:36:12 MEGA F 58 F 2075
874 ABIS SeVERINE 11:36:32 CAF ILE DE FRAN F 59 F 2027
875 PAVIET ANTOINE 11:36:40 TRAINING COACHI M 908
876 VECHART SOPHIE 11:36:57 F 60 F 2153
877 SAULAS OLIVIER 11:37:11 EACPA M 1052
878 ALARY JULIEN 11:37:13 M 57
879 TABERLET CHRISTIAN 11:38:07 M 1096
880 VILLENEUVE BENJAMIN 11:38:20 TEAM COMPEX TRA M 1170
881 GARCIA MURIEL 11:38:30 COURIR EN LIVRA F 61 F 2081
882 FORAY ALAIN 11:38:51 M 1207
883 SZYSZKA THIERRY 11:38:59 ASSOCIATION SPO M 1094
884 SCHAAD BAPTISTE 11:40:23 M 1057
885 JACQUEMET THOMAS 11:40:38 M 640
886 PERRIN ReMI 11:41:12 M 925
887 BONTEMPS LOiC 11:41:12 M 181
888 BRAZET NATHALIE 11:41:16 F 62 F 2050
889 COSTES GUILLAUME 11:41:34 M 332
890 LEJEUNE BENJAMIN 11:41:54 M 734
891 BRESSY BENJAMIN 11:42:06 M 227
892 ROY GUILLAUME 11:42:08 M 1038
893 EICKMAYER THOMAS 11:42:08 M 472
894 BOURDON OLIVIER 11:42:17 M 1352
895 DO MICHEL 11:42:31 M 425
896 ROY SIMON 11:42:39 M 1039
897 BOUMAZA NADINE 11:42:47 CA VEYNES F 63 F 2047
898 GRIFFIT MYLENE 11:42:47 CA VEYNES F 64 F 2087
899 LE MENEC STePHANE 11:42:48 MBDA SPORT ATHL M 717
900 KONAN KOLIA 11:42:48 SPRINTER CLUB A M 1239
901 FONTAINE ALEXANDRE 11:43:02 CCR92 M 506
902 GALAUP CLARA 11:43:06 F 65 F 2080
903 PACLET NICOLAS 11:43:31 M 1281
904 FOLIO FReDeRIC 11:43:32 M 503
905 PUCHALA STePHANE 11:43:59 M 1293
906 BATIFOULIER SEVERINE 11:44:14 PLAUZAT SPORT N F 66 F 2037
907 BERNARD JeReMIE 11:44:18 JCWORMHOUT M 134
908 LEFEVRE LAURENT 11:44:35 M 728
909 BAILLON STePHANE 11:44:35 M 95
910 DUCHATEL CHRISTOPHE 11:44:44 M 444
911 LOTIGIE ARNAUD 11:45:04 M 1396
912 PERRIN AUReLIEN 11:45:35 SPP STRASBOURG M 924
913 BOUDET SeBASTIEN NICOLA... 11:46:40 M 192
914 JULITA SeBASTIEN 11:46:52 MP TRAIL 53 M 664
915 LEVEQUE GILLES 11:47:45 M 754
916 LEVEQUE DELPHINE 11:47:48 F 67 F 2113
917 GHLOUCI FARIDE 11:47:53 M 556
918 DUCHIRON JeRoME 11:47:58 M 446
919 BEAU OLIVIER 11:48:06 M 112
920 VALLAIS CYRIL 11:48:06 JOGGING CUB ST M 1145
921 BREUILLAT OLIVIER 11:48:24 M 228
922 ROBERT FeLIX 11:48:50 ESSHA LE LION D M 1017
923 DEMARET RAYMOND 11:48:55 FCHA M 395
924 DEMARET FReDeRIK 11:48:55 FCHA M 394
925 ROCHER CYRILLE 11:49:12 M 1019
926 MOUCHON DAVID 11:49:38 RC ARRAS TRIATH M 867
927 ONFRAY LOUIS MARIE 11:49:43 M 892
928 SHARPIN GAUTIER 11:49:43 M 1076
929 VAIOS EMMANUEL 11:49:58 M 1143
930 CLEMENT SeBASTIEN 11:50:00 LIB'AIR'TRAIL M 315
931 NOGUE GeRIC 11:50:33 BOULIAC SPORTS M 886
932 SIGNORET GeRARD 11:50:49 BASKETS FUMANTE M 1082
933 FISSON BENOIT 11:50:57 M 499
934 BELKAHLA ABDEL 11:51:21 M 118
935 MARTIN EVA 11:51:30 F 68 F 2121
936 POULAT STePHANE 11:51:30 M 962
937 BODIOT THIERRY 11:51:31 M 167
938 CEZARD CHRISTOPHE 11:53:45 M 271
939 PRUAL JEAN CLAUDE 11:53:46 AS TUB. TREGUEU M 972
940 CHAIGNEAU LAURENT 11:54:41 FREE RUNNERS LE M 275
941 GEROULT JEAN GABRIEL 11:55:30 M 550
942 SIMOES BRUNO 11:55:36 VGA SAINT MAUR M 1083
943 TIMBRELL JeRoME 11:55:58 ENGLAND ATHLETI M 1119
944 ROHMER LAURENT 11:56:17 ROSHEIM RUNNING M 1023
945 TAAM DAVID 11:56:38 01 PULSION M 1095
946 GUSMINI JEAN LUC 11:56:50 M 607
947 VERLET JeReMY 11:57:06 POMPIERS DES AR M 1160
948 ADAM GABRIEL 11:57:11 EACPA M 53
949 MAINGON YOANN 11:57:15 M 786
950 MASSET DELPHINE 11:57:24 F 69 F 2123
951 DESBROSSES ALEXIS 11:57:28 WILD TEAM TRIAT M 405
952 NOIZILLIER CYRIL 11:57:37 M 887
953 LOOTVOET CeDRIC 11:57:40 TREVIRE TRAIL C M 773
954 LE BAIL VeRONIQUE 11:57:46 AS AGNETZ ATHLE F 70 F 2105
955 LEPRETRE JEAN CLAUDE 11:57:56 M 742
956 JOINEAU JEAN CLAUDE 11:57:59 ASPTT BELFORT T M 655
957 VILLAUMIE ANDRe 11:58:30 AC CHATENOIS LE M 1321
958 VOILLAUME FABRICE 11:58:30 M 1324
959 SROKOSZEWSKI MICHAEL 11:59:31 ACHEVILLE RUNNI M 1091
960 VANDYCKE DAVID 11:59:31 M 1153
961 VIDALIE VINCENT 11:59:34 M 1165
962 RIBEAUCOURT PHILIPPE 11:59:43 M 1003
963 BOULAY CeDRIC 12:00:21 AMSLF FREJUS M 199
964 BOULAND JEAN MARC 12:00:30 M 198
965 VARLET CHRISTIAN 12:00:45 LA BERRICHONNE M 1154
966 BADUFLE DOUCHEZ GReGOIR... 12:00:55 M 91
967 CUILLER ANTHONY 12:00:59 M 348
968 COUNIL DELPHINE 12:01:02 VEO2000 LA PLAG F 71 F 2164
969 PAYET LOIC 12:01:08 M 910
970 LASSAUCE CHARLES 12:01:25 M 1244
971 EL KHATTABI MUSTAPHA 12:01:41 M 473
972 SINCLAIR GREGOR 12:01:57 M 1309
973 TESSON CLeMENT 12:02:07 M 1108
974 GERARD GReGOIRE 12:03:09 PASSE LA SECOND M 548
975 CUILLERON ROBERT 12:03:23 LA FOULEE MUROI M 1190
976 TRONEL JeRoME 12:03:47 TREGUEUX ATHLET M 1135
977 MAXIMIN PATRICK 12:03:57 AS MARCOUSSIS M 826
978 COURBARON CeCILE 12:03:57 AS MARCOUSSIS F 72 F 2061
979 MOUCHEL FReDeRIC 12:04:29 ASH HAINNEVILLE M 1275
980 REPKAT CHRISTIAN 12:04:53 CROCO D'AIRAIN M 999
981 LACROIX SIMON 12:04:55 M 684
982 BREMONT JeReMY 12:05:13 M 224
983 LESUEUR FRANcOIS 12:06:14 M 749
984 VANBIERVLIET FRANCK 12:06:29 M 1151
985 COLARD ANDREW 12:06:30 M 323
986 PLATEAU LOiC 12:06:37 TEAM CHARENTES M 948
987 GOUJAT FReDeRIC 12:07:15 M 570
988 WILLAUME PATRICK 12:07:23 M 1184
989 RAVIER FReDeRIC 12:07:23 ASPHALTE 94 M 1297
990 OGER ALEXIS 12:07:24 USO ATHIS MONS M 888
991 MEYER MAGALI 12:07:24 USO ATHIS MONS F 73 F 2126
992 VERET CLeMENT 12:07:35 M 1159
993 SARUCO AUDREY 12:08:49 F 74 F 2145
994 EYSSERIC JULIE 12:09:46 F 75 F 2071
995 SCIASCIA ADRIEN 12:09:47 M 1064
996 GROULT FReDeRIC 12:10:30 M 588
997 ANCELIN FReDeRIC 12:10:31 M 64
998 BAVOUZET ANTHONY 12:10:31 BARJOSTEAM M 111
999 PELISSON ELODIE 12:10:33 F 76 F 2139
1000 PELISSON MARC 12:10:34 U S C B M 915
1001 GARCIA ROBERT 12:10:59 COURIR EN LIVRA M 532
1002 ABRIAL CYRIL 12:11:12 M 51
1003 CELLIER SeBASTIEN 12:11:12 AAA DU LYONNAIS M 270
1004 POUPON FLORIAN 12:11:12 M 1290
1005 SABATIER LUCIE 12:11:26 TEAM TERRE DE R F 77 F 2144
1006 GROUSSOUS ADRIEN 12:12:49 M 590
1007 ELOIRE LUDOVIC 12:13:56 M 474
1008 ETCHEBERRY IORITZ 12:14:03 M 479
1009 BARDON PHILIPPE 12:14:05 THE A TEAM / CR M 101
1010 BRYLA LADISLAS 12:14:12 M 236
1011 CHEVALIER CAROLE 12:14:12 F 78 F 2057
1012 MARGUERITE ALEXANDRE 12:14:19 M 799
1013 BROWANG GILLES 12:14:26 ASSO SIDEL M 235
1014 COLLIN LIONEL 12:14:44 M 1366
1015 HANQUEZ GUILLAUME 12:14:45 M 1226
1016 LAFONT NADINE 12:16:12 AC MIRAMAS F 79 F 2100
1017 GOUJON PASCAL 12:16:14 M 571
1018 LIENARD SeBASTIEN 12:16:32 M 764
1019 BLIGNY OLIVIER 12:16:33 M 163
1020 DUCLOYER FLORENTIN 12:17:01 M 447
1021 CROGUENNEC CYRIL 12:17:53 TEAM TRAIL DE L M 346
1022 LEYNAUD MICHEL 12:17:54 M 755
1023 LESPRIT VINCENT 12:18:30 M 748
1024 DESSAINT PIERRE 12:19:17 M 411
1025 BERTHOUX ARNAULD 12:19:17 VERTICALAIS OXY M 139
1026 VALETTE MARC ANTOINE 12:20:06 M 1413
1027 BOURLARD NICOLAS 12:20:25 CENTRE ANTOINE M 205
1028 EGENSPERGER EMMANUEL 12:20:26 BREF, JE FAIS D M 1200
1029 JANIN XAVIER 12:20:42 M 647
1030 LASBATS GeRALD 12:20:43 M 701
1031 BRACHET PATRICK 12:21:11 M 213
1032 SOMBE MARC ARTHUR 12:21:45 M 1087
1033 HOUETTE CHLOe 12:21:45 F 80 F 2094
1034 COURTHIEU JORDAN 12:21:46 M 337
1035 CAMPAGNE ReMY 12:23:35 COURIR AU MONT M 250
1036 VITRY FABIEN 12:23:51 M 1176
1037 PASTOR GEORGES 12:24:14 LES SEMI CROUST M 905
1038 AUGAGNEUR VeRONIQUE 12:24:42 C.I.V.C COUREUR F 81 F 2031
1039 ANGLADA EMMANUELLE 12:24:43 F 82 F 2161
1040 MOURIES FRANcOIS 12:24:44 M 870
1041 CLEMENT MURIELLE 12:25:01 F 83 F 2059
1042 PRUVOST LOUIS 12:25:15 ACVA M 974
1043 PRUVOST BERTRAND 12:25:15 M 973
1044 LORENZONI TRISTAN 12:25:29 M 1254
1045 PEYNET PHILIPPE 12:25:33 M 933
1046 RAZAFITSIFEHERA JEAN MA... 12:26:12 M 993
1047 BOURGIER NICOLAS 12:26:12 M 1355
1048 DIAS PASCAL 12:26:26 YERRES ATHLETIQ M 419
1049 COTTIN ALEXANDRE 12:26:32 M 334
1050 PROUILLET YOANN 12:26:33 M 1292
1051 CLERC STePHANE 12:26:35 M 1364
1052 LY RICHARD 12:27:43 M 780
1053 EVEZARD HeLeNE 12:28:14 AMS SAINT PERE F 84 F 2166
1054 EVEZARD FReDeRIC 12:28:14 AMS SAINT PERE M 1203
1055 SEVILLANO VINCENT 12:28:18 M 1075
1056 GIRAUDEAU BAPTISTE 12:28:19 M 561
1057 GUIGUE LUCIE 12:28:23 TEAM COMPEX TRA F 85 F 2089
1058 VERRIEST CHRYSTELLE 12:28:37 TRAIL ENTRE ELL F 86 F 2154
1059 DELOGES THOMAS 12:29:02 M 392
1060 ANANI LOUIS 12:29:05 M 63
1061 SACARRERE THeO 12:29:10 M 1046
1062 ROLLAND GReGORY 12:29:55 TEAM COMPEX TRA M 1024
1063 COLLINA DOMINIQUE 12:31:01 M 326
1064 HAUTEVILLE LONGET CAROLE 12:31:01 TAEKWENDO DE RA F 87 F 2090
1065 DOMINGET CLeMENT 12:31:21 DIMITILE SPORTS M 427
1066 HEMMER GReGORY 12:31:21 M 619
1067 HEMMER HERVe 12:31:21 OLICOACHING M 620
1068 FERNEZ PATRICK 12:32:23 RDV RUN M 494
1069 LIBEREK DAVID 12:32:24 RDV RUN M 759
1070 SPANGENBERG JEAN LOUIS 12:32:44 EACPA M 1090
1071 LIEBLANG DANIEL 12:33:06 M 763
1072 MOTTL ERIC 12:33:06 M 866
1073 ROOY ANTHONY 12:33:11 M 1030
1074 GARNIER JEFF 12:33:21 CAP ASR ROCHECO M 537
1075 DAOULAS YANNICK 12:33:23 TREGUEUX ATHLET M 358
1076 LANGARD YVES 12:33:25 JDM BURES M 698
1077 ABDELAZIZ ZOHRA 12:34:06 F 88 F 2026
1078 LECOMTE PHILIPPE 12:34:23 M 722
1079 BOSCH CATHERINE 12:34:23 F 89 F 2046
1080 RAPPOLD JOeL 12:34:41 M 990
1081 ZARZYCKI STePHANE 12:34:42 M 1188
1082 CLUNY NICOLE 12:34:50 XTREM TRAIL RAM F 90 F 2060
1083 NICOLAS VEROMANITRA 12:35:43 TRAIL AVENTURES F 91 F 2170
1084 BUZZI DANIEL 12:35:44 RANDONNEURS RUY M 242
1085 GARDIN DAVID 12:36:12 TEAM GLOBETRAIL M 533
1086 GARREAU ANNE CAMILLE 12:36:26 F 92 F 2167
1087 CARKCI YASIN 12:36:30 M 257
1088 CASSAR SIMON 12:36:33 M 262
1089 GUILLET YANNICK 12:37:01 M 602
1090 TISSERAND ERIC 12:38:11 PLOMBIERES AS M 1121
1091 TISSERAND CATHERINE 12:38:12 PLOMBIERES AS F 93 F 1122
1092 BECOUZE PIERRE 12:39:21 M 116
1093 VIGREUX RENAUD 12:40:38 M 1168
1094 GUERIN STePHANE 12:41:12 ACLAM M 595
1095 RAMANICK JEAN MARC 12:41:20 M 987
1096 COMTE SeBASTIEN 12:41:21 ESPRIT RAID M 1367
1097 SZYMONIK ROMAIN 12:41:23 M 1093
1098 CORDON SeBASTIEN 12:42:24 S/L RCN VALLET M 330
1099 PAYET WALTER RICHARD 12:45:18 M 911
1100 RICHEL DENIS 12:45:57 M 1010
1101 KRAWCZYK WILLIAM 12:46:26 M 676
1102 KRAWCZYK FRANCK 12:46:26 M 677
1103 PEREYRA MOOS CLAUDIO 12:46:31 M 922
1104 NEVEU ERIC 12:47:00 M 875
1105 GAMOT JEAN PIERRE 12:47:35 AS MONTFERRAND M 528
1106 JORIATTI KEVIN 12:47:35 M 656
1107 SONG THIERRY 12:48:36 M 1088
1108 BENSAID RAOUL 12:48:38 M 129
1109 RIBEIRO CYRILLE 12:48:38 M 1005
1110 MERCIER FABRICE 12:49:00 TEAM TRAIL EVOI M 834
1111 BENARD THOMAS 12:49:00 M 126
1112 GERUSZ VINCENT 12:50:04 M 552
1113 FABRE PATRICE 12:50:43 M 481
1114 HAUGER FRANcOIS 12:53:15 M 616
1115 MONTMAYEUR LUDIVINE 12:53:16 VEO2000 LA PLAG F 94 F 2182
1116 LAMARQUE JULIE 12:53:32 F 95 F 2101
1117 LEMAN GeRARD 12:53:36 COURIR EN BAIE M 736
1118 ALLEGOET ERIC 12:53:39 BASKETS FUMANTE M 61
1119 PHENE LOiS 12:54:12 TRAIL ATTITUDE M 935
1120 GUERRAND DANIEL 12:54:24 M 596
1121 WYON STePHANIE 12:56:16 F 96 F 2159
1122 T'KINDT MURIEL 12:56:16 F 97 F 2148
1123 WYON JEAN FRANcOIS 12:56:16 LA FOULEE MEYNO M 1326
1124 RAUTUREAU NATACHA 12:56:16 LA FOULEE MEYNO F 98 F 2140
1125 AVUNDO ERIC 12:56:26 M 85
1126 DEFORTESCU ERIC 12:56:57 MARNE ET GONDOI M 376
1127 ARNOULT JIMMY 12:57:57 M 73
1128 MAIGNIEN BENOiT 12:58:16 CAO78 M 782
1129 ROUSSELON KEVIN 13:00:01 WILL TEXAN TRIA M 1035
1130 PONCE THOMAS 13:00:02 M 956
1131 MUSIN RENAUD 13:00:28 ESM BELGIQUE M 873
1132 RICHARD DAVID 13:03:53 M 1008
1133 SERET FRANcOIS 13:08:08 M 1071
1134 MARCEL KATIA 13:08:08 F 99 F 2115
1135 GRAUX OLIVIER 13:09:26 M 582
1136 MARGUET SOPHIE 13:11:29 F 100 F 2120
1137 FOURCART MAXENCE 13:11:29 M 509
1138 REYNAUD DAMIEN 13:11:44 AUVERGNE TRAIL M 1002
1139 GAUTHIER BRUNO 13:12:02 M 542
1140 POULIN STEPHANE 13:12:21 MAUVES ATTITUDE M 963
1141 FALLOU LIONEL 13:12:21 MAUVES ATTITUDE M 485
1142 CLARY ALEXANDRE 13:13:10 POUZAUGES KARAT M 311
1143 MAUGER LISA 13:15:07 F 101 F 2124
1144 DOUMOU NAOMI 13:15:07 TEAM COMPEX TRA F 102 F 2068
1145 MAITRE RENAUD 13:16:52 JOGGING CLUB EP M 1258
1146 BOURGIER DIMITRI 13:17:54 M 1354
1147 LEVENT YANNICK 13:18:02 M 753
1148 GARNIER JEAN PIERRE 13:19:46 M 538
1149 GALLIER JEAN BAPTISTE 13:20:01 M 526
1150 DESPLANQUES LUDOVIC 13:20:02 M 410
1151 GOUIN STePHANE 13:20:08 OLYMPIQUE CLUB M 568
1152 SAUVEAUX GUILLAUME 13:24:08 WIN E TEAM TRIA M 1053
1153 BOYER FABIEN 13:24:08 WIN E TEAM TRIA M 209
1154 DURNEZ PASCAL 13:26:31 M 466
1155 MARTINEZ CHRISTELLE 13:26:32 F 103 F 2122
1156 HUET HERVe 13:51:44 M 630
1157 POUJADE CHARLES 14:06:23 M 960
1158 BONNIN JEAN BAPTISTE 14:06:24 M 180
1159 PINEAUD VICTORIEN 14:06:25 TEAM TRAIL PARI M 941


ReferencementCe site est listé dans la catégorie Sport : Sports extrêmes Dictionnaire
| Accueil | La Réunion  Vue du ciel | Météo | Cyclones | Volcan | Cirques de Mafate , Cilaos , Salazie | Photos Randonnées | Randonnées Réunion: Randos Espiègle , Courses montagne | Diagonale des Fous |  Marathon des Sables | Voyages Les stats du site | Fonds écran | Plan du site | Blog de runraid | Galerie photos Sport Réunion |